Wind_Speed
15 17 16 16 15 14 14 15 13 12 12 10 9 8 7 6 4 1 3 3 1 1 1 3 2 4 4 0 5 8 2 2 5 2 3 3 1 4 7 6 7 8
16 17 17 16 16 15 17 17 15 14 13 12 10 9 7 6 3 2 3 2 1 2 2 2 2 3 3 2 6 8 3 1 3 1 2 5 2 1 4 5 6 8
18 19 19 18 17 17 18 18 17 15 15 14 11 8 7 5 2 2 3 1 3 4 3 2 3 2 2 4 7 4 2 2 3 1 1 5 3 2 2 3 3 5
20 20 20 20 19 19 19 20 19 17 17 16 12 9 7 6 3 2 2 2 5 5 3 2 3 4 5 8 6 2 1 2 4 1 3 3 4 0 2 3 2 4
22 22 22 22 21 21 21 21 19 18 18 17 14 10 8 6 4 2 2 3 5 5 3 2 3 5 7 7 5 4 4 2 4 3 3 1 5 4 2 3 1 3
24 24 23 23 22 22 22 21 19 17 17 17 15 11 8 7 5 2 3 4 5 5 4 3 5 6 8 6 4 4 3 6 4 4 3 1 4 6 3 3 3 3
25 26 25 24 23 22 22 22 19 17 17 17 16 12 8 7 5 4 5 5 6 6 4 5 5 6 8 6 2 4 4 5 6 5 4 3 5 5 4 1 4 3
25 26 25 25 24 23 23 22 19 18 18 18 17 13 10 7 6 5 6 8 7 6 5 6 5 5 10 7 2 5 5 4 5 4 5 5 5 3 2 4 2 5
25 25 25 25 25 23 23 22 19 18 19 19 17 14 11 9 7 7 8 8 8 7 7 7 5 7 11 8 3 5 4 3 5 4 4 4 2 2 0 3 1 2
23 24 23 24 25 24 22 21 19 19 20 19 18 15 12 11 9 9 8 7 8 8 8 7 7 8 10 7 4 5 5 5 5 4 3 3 4 4 5 3 2 2
24 23 21 22 22 23 23 21 18 19 21 20 18 15 13 12 11 10 9 7 8 8 8 8 8 7 7 6 6 6 4 4 5 4 2 3 4 5 5 5 4 3
23 22 20 20 19 20 23 22 20 21 22 20 18 15 13 13 12 11 9 8 7 7 7 8 8 7 6 6 6 7 5 3 5 3 2 3 3 3 3 4 3 3
19 19 18 19 19 19 20 21 20 21 21 19 17 15 14 14 14 12 9 7 8 7 6 7 9 9 8 7 7 7 7 4 4 3 3 4 3 3 4 3 4 5
15 16 16 17 18 18 16 16 19 21 20 18 17 16 15 14 13 12 10 8 9 9 7 8 11 12 10 8 6 7 7 5 4 4 4 4 3 5 4 4 6 8
17 16 17 17 17 17 15 15 17 19 20 19 18 18 16 14 12 12 11 9 9 10 9 10 13 14 12 9 7 8 8 5 5 5 3 3 3 4 4 5 7 8
22 20 18 18 16 15 13 13 14 16 18 19 19 18 16 15 13 12 11 10 9 9 10 12 14 15 13 11 10 10 8 6 6 6 4 5 5 5 6 7 8 6
27 25 21 19 16 14 12 13 13 14 15 16 17 17 15 14 14 12 12 12 10 10 12 14 16 15 12 10 10 11 9 9 8 6 6 7 7 6 6 7 7 5
26 26 25 23 20 16 15 14 13 13 12 12 13 15 15 15 14 12 13 13 12 12 14 16 17 15 11 9 10 10 11 10 9 8 7 7 5 4 4 6 7 5
25 25 27 28 25 22 20 17 14 13 11 10 12 15 16 16 15 14 14 16 16 15 15 17 18 15 11 10 10 10 11 10 9 9 7 6 6 5 6 8 8 6
24 24 27 29 27 26 25 22 18 14 11 9 11 14 15 16 17 17 17 17 19 18 17 18 19 16 12 10 11 11 10 10 11 10 7 7 7 8 10 10 8 7
24 25 28 28 28 27 26 26 23 18 13 11 10 12 13 15 19 20 19 19 20 20 18 19 20 18 13 11 12 12 11 11 13 11 9 9 10 11 12 11 9 8
23 26 28 28 28 28 26 25 25 21 17 14 11 12 13 15 18 20 20 20 21 22 21 21 22 20 15 12 12 13 12 13 14 12 11 11 12 12 11 11 10 9
21 23 27 27 26 27 26 24 24 23 21 19 16 14 14 16 18 20 21 21 22 23 23 23 23 21 18 14 13 14 14 14 15 14 12 12 12 11 9 10 10 9
21 22 26 27 24 24 25 24 23 23 23 23 21 19 16 17 19 21 23 23 23 25 25 25 25 23 20 17 14 15 15 15 15 14 12 12 12 10 9 10 10 8
22 23 27 27 24 22 24 25 24 24 24 24 22 21 21 19 19 21 24 26 25 24 24 25 26 24 22 19 16 15 15 16 16 15 12 12 13 10 9 11 10 8
23 24 26 25 23 23 24 25 24 24 25 25 23 23 25 23 21 21 23 26 26 26 25 25 25 25 24 21 18 16 16 17 17 16 13 14 14 10 9 12 10 8
Wind_Direction
231 232 233 226 221 222 228 235 233 230 233 231 233 240 254 285 299 287 296 307 302 269 232 232 262 292 285 283 303 293 286 346 311 314 21 343 330 8 349 356 12 353
235 233 234 235 230 225 228 235 233 228 231 233 236 241 253 273 279 248 278 307 291 259 243 217 239 297 324 303 277 292 308 349 317 287 12 334 279 121 19 18 15 340
239 236 234 235 236 232 231 235 233 226 227 234 238 242 256 271 261 220 236 209 209 248 253 205 223 248 301 273 267 297 323 299 304 237 70 337 300 128 13 334 355 309
245 243 241 238 235 232 234 237 234 225 223 232 238 240 252 265 262 235 229 196 203 224 236 210 216 216 236 254 254 246 209 255 295 261 100 340 302 311 261 259 299 294
253 250 250 247 238 231 232 237 237 229 225 231 237 237 246 261 267 246 221 206 205 213 218 212 223 238 252 254 247 234 180 147 302 288 113 2 299 304 243 184 64 330
258 258 255 249 240 233 231 233 234 230 226 231 237 236 241 253 264 252 222 212 210 214 219 237 244 258 271 267 261 268 188 160 238 256 133 98 295 304 300 147 109 359
258 258 256 248 240 234 232 231 227 224 225 230 236 237 236 244 252 235 211 207 217 223 230 253 260 267 279 281 247 270 253 206 221 213 163 182 234 267 312 226 158 135
263 262 263 259 250 239 234 233 225 219 224 232 237 238 237 243 250 237 213 205 215 226 233 247 247 245 268 283 238 236 267 279 268 225 187 208 225 223 324 308 201 152
275 274 274 270 261 249 239 236 229 220 222 230 234 236 241 246 244 237 226 207 207 220 230 235 225 233 261 281 265 228 233 270 292 282 222 215 202 150 219 305 276 171
281 281 278 271 266 260 250 241 233 225 225 229 231 232 243 253 243 234 234 214 203 217 228 230 226 239 265 283 278 249 232 237 271 291 262 207 172 186 206 210 198 204
286 286 281 274 270 267 261 253 240 231 232 236 236 234 241 252 246 236 236 224 209 213 223 236 238 238 261 285 293 284 262 246 260 274 262 214 198 207 217 209 197 198
294 296 291 283 278 272 267 263 251 239 239 242 242 239 238 241 244 243 238 224 216 216 216 232 245 235 231 249 277 292 290 261 262 264 217 224 224 198 211 218 196 195
305 305 300 292 288 281 272 271 264 252 250 251 246 242 235 230 234 243 243 216 209 223 219 223 239 237 232 242 259 282 290 273 265 261 232 237 217 186 211 212 191 217
323 315 309 301 296 289 284 287 280 268 267 265 252 241 235 229 229 237 245 222 201 212 220 224 234 236 241 255 256 266 281 279 266 256 247 249 222 211 223 207 214 243
345 333 324 317 306 296 291 292 286 276 273 267 252 239 230 227 228 231 241 237 211 205 213 226 235 239 247 254 248 261 280 278 254 250 243 237 231 221 210 212 238 264
4 354 343 335 326 316 305 293 286 282 276 266 257 250 236 226 228 228 233 239 228 211 213 225 236 245 257 261 258 270 280 261 247 249 220 203 216 219 214 230 256 270
13 10 3 354 341 333 323 305 295 293 286 272 263 260 248 231 225 226 231 235 231 224 222 227 238 251 265 268 267 271 267 253 249 243 223 219 225 231 234 251 266 260
12 14 15 12 1 347 336 327 321 315 302 281 261 253 248 239 229 227 234 234 229 226 228 233 243 255 266 265 265 266 257 252 250 243 236 228 222 224 229 247 267 266
9 13 14 15 14 4 354 347 340 331 316 288 261 249 244 239 233 228 232 236 234 228 227 236 247 259 264 261 260 258 252 244 241 244 241 218 203 206 213 232 259 272
5 7 6 8 11 10 5 1 355 343 326 298 267 256 247 240 240 236 229 232 239 236 228 232 247 259 262 258 254 251 247 235 228 235 232 210 202 205 214 229 249 264
359 359 360 0 2 3 4 5 3 354 338 314 283 269 259 245 243 242 233 229 238 243 235 231 244 257 259 254 250 247 241 230 228 232 225 212 215 219 227 237 240 244
1 0 360 359 357 356 356 359 0 358 350 332 303 280 264 248 245 247 243 236 236 242 241 235 241 253 257 252 248 245 241 232 230 234 229 223 230 237 241 248 244 240
357 354 353 355 357 354 350 351 354 354 351 342 324 301 275 256 251 251 250 246 239 240 243 240 241 248 254 251 245 243 243 237 230 233 234 232 240 246 246 250 250 245
349 347 347 350 357 356 350 349 349 344 341 339 334 322 299 272 259 254 251 248 241 237 240 242 242 245 249 249 245 241 242 240 233 230 229 234 244 248 242 247 253 246
350 350 349 349 351 351 351 351 347 339 332 329 329 330 320 297 274 261 253 247 241 236 238 242 243 245 246 246 244 240 239 239 233 225 220 231 245 251 241 245 254 245
349 349 349 348 344 343 347 349 348 345 339 331 328 329 326 316 298 279 262 253 249 244 239 239 243 246 245 244 244 240 237 237 231 220 214 228 243 249 243 247 254 244
Height
1548 1547 1546 1546 1546 1546 1545 1544 1543 1543 1542 1542 1541 1541 1540 1539 1539 1538 1537 1537 1536 1536 1536 1537 1537 1537 1537 1537 1537 1536 1536 1536 1536 1536 1537 1537 1537 1537 1537 1538 1538 1538
1546 1546 1546 1545 1544 1544 1544 1543 1542 1541 1541 1540 1540 1539 1539 1538 1538 1537 1536 1536 1536 1536 1536 1536 1536 1537 1537 1537 1536 1536 1536 1536 1536 1536 1537 1537 1537 1537 1538 1538 1538 1538
1544 1544 1544 1544 1543 1542 1542 1541 1541 1540 1539 1539 1538 1538 1537 1537 1536 1536 1535 1536 1536 1536 1535 1536 1536 1537 1537 1536 1535 1536 1536 1536 1536 1536 1536 1537 1537 1537 1537 1538 1538 1538
1543 1543 1543 1542 1541 1542 1541 1541 1540 1539 1539 1538 1537 1537 1536 1536 1535 1535 1534 1535 1535 1535 1535 1535 1536 1536 1536 1535 1535 1535 1535 1536 1536 1536 1536 1537 1537 1537 1537 1537 1538 1538
1543 1543 1542 1541 1541 1541 1540 1539 1539 1539 1538 1537 1536 1536 1535 1535 1534 1534 1534 1534 1534 1534 1534 1535 1535 1535 1534 1534 1534 1534 1535 1535 1536 1536 1536 1537 1537 1537 1537 1537 1537 1538
1543 1542 1541 1540 1540 1540 1540 1538 1538 1538 1537 1536 1536 1535 1535 1534 1534 1533 1533 1533 1534 1534 1534 1534 1534 1534 1533 1533 1533 1534 1534 1535 1535 1535 1536 1537 1537 1536 1536 1537 1537 1538
1542 1541 1540 1540 1541 1541 1539 1538 1538 1537 1537 1536 1535 1535 1534 1534 1534 1533 1533 1534 1534 1534 1534 1534 1534 1533 1533 1532 1533 1533 1533 1533 1534 1534 1535 1536 1536 1536 1536 1537 1537 1538
1542 1541 1541 1542 1543 1541 1540 1538 1538 1537 1536 1535 1534 1534 1534 1534 1534 1534 1534 1534 1534 1534 1534 1534 1534 1533 1532 1532 1533 1533 1533 1532 1532 1533 1534 1534 1535 1536 1536 1536 1537 1538
1542 1543 1543 1544 1543 1542 1540 1539 1538 1538 1537 1535 1534 1534 1534 1534 1534 1534 1534 1534 1534 1534 1534 1533 1534 1533 1532 1532 1532 1532 1532 1532 1532 1532 1533 1533 1534 1535 1536 1536 1537 1537
1539 1539 1539 1539 1540 1540 1540 1539 1539 1538 1537 1536 1534 1534 1533 1533 1534 1534 1534 1534 1534 1534 1534 1533 1533 1532 1531 1531 1532 1532 1532 1532 1531 1531 1532 1532 1533 1534 1535 1535 1536 1536
1534 1533 1533 1534 1535 1538 1539 1539 1540 1538 1537 1535 1535 1534 1533 1533 1533 1533 1533 1533 1533 1534 1534 1533 1533 1532 1532 1531 1531 1531 1531 1531 1531 1531 1531 1531 1532 1533 1533 1534 1535 1535
1532 1531 1531 1531 1532 1534 1536 1539 1540 1538 1536 1535 1535 1534 1534 1533 1532 1533 1533 1533 1533 1533 1534 1534 1533 1532 1532 1531 1531 1530 1530 1530 1530 1530 1531 1531 1531 1532 1532 1533 1534 1534
1530 1530 1530 1530 1531 1532 1533 1536 1538 1538 1536 1536 1536 1535 1534 1533 1532 1532 1532 1532 1533 1533 1533 1534 1533 1532 1532 1531 1531 1530 1530 1530 1530 1530 1530 1530 1531 1531 1532 1532 1533 1532
1529 1529 1528 1529 1530 1530 1531 1532 1535 1536 1537 1538 1537 1535 1534 1533 1532 1532 1531 1532 1532 1533 1533 1533 1533 1532 1531 1531 1530 1530 1529 1530 1530 1530 1530 1530 1530 1531 1531 1531 1531 1531
1530 1529 1528 1528 1528 1529 1529 1529 1531 1533 1535 1536 1536 1533 1532 1532 1532 1532 1532 1531 1531 1532 1532 1532 1531 1531 1530 1530 1530 1529 1529 1530 1530 1530 1530 1530 1530 1530 1530 1530 1530 1530
1530 1529 1528 1527 1527 1527 1527 1527 1528 1529 1530 1531 1532 1531 1530 1531 1532 1532 1532 1532 1531 1531 1532 1531 1530 1529 1529 1529 1529 1529 1529 1529 1529 1529 1530 1530 1530 1530 1529 1529 1529 1530
1531 1529 1528 1527 1527 1527 1526 1526 1526 1526 1526 1526 1527 1529 1529 1529 1531 1532 1532 1531 1531 1531 1531 1530 1529 1528 1528 1528 1529 1529 1529 1529 1529 1529 1529 1529 1529 1529 1529 1528 1528 1529
1532 1531 1529 1528 1527 1526 1525 1525 1524 1523 1523 1523 1524 1526 1527 1528 1530 1532 1532 1531 1530 1530 1530 1529 1528 1527 1527 1528 1528 1528 1529 1529 1529 1529 1529 1529 1529 1529 1529 1528 1527 1527
1533 1532 1531 1529 1528 1526 1525 1524 1523 1522 1521 1521 1522 1523 1524 1526 1528 1530 1530 1529 1528 1528 1528 1527 1526 1526 1526 1527 1527 1527 1528 1528 1528 1528 1528 1528 1529 1529 1529 1528 1527 1527
1533 1532 1531 1530 1528 1527 1525 1524 1523 1521 1520 1520 1520 1521 1521 1523 1525 1525 1525 1526 1526 1526 1526 1526 1525 1525 1525 1526 1526 1526 1527 1527 1527 1527 1527 1528 1528 1528 1528 1527 1527 1527
1534 1532 1531 1530 1529 1527 1526 1524 1523 1521 1520 1519 1519 1519 1519 1520 1521 1521 1521 1523 1524 1524 1524 1524 1523 1523 1524 1525 1525 1525 1526 1526 1526 1526 1527 1527 1527 1527 1527 1527 1527 1527
1535 1533 1531 1530 1529 1527 1526 1525 1523 1521 1520 1519 1519 1519 1518 1518 1519 1519 1519 1520 1521 1521 1522 1522 1521 1522 1522 1523 1524 1524 1524 1525 1525 1525 1525 1526 1525 1525 1526 1526 1526 1526
1535 1533 1532 1530 1529 1527 1526 1525 1524 1522 1521 1520 1519 1518 1518 1517 1517 1517 1517 1518 1518 1519 1520 1520 1519 1520 1520 1521 1522 1523 1523 1523 1524 1524 1524 1524 1524 1524 1525 1525 1525 1525
1534 1533 1532 1530 1529 1528 1527 1525 1524 1522 1521 1519 1518 1517 1516 1516 1515 1514 1515 1516 1516 1516 1517 1517 1517 1518 1518 1519 1520 1521 1521 1522 1523 1523 1523 1523 1523 1523 1524 1523 1524 1525
1534 1533 1532 1530 1528 1528 1527 1525 1524 1522 1520 1518 1517 1515 1514 1514 1513 1512 1513 1513 1513 1514 1515 1516 1516 1516 1517 1517 1518 1519 1520 1520 1522 1522 1522 1522 1522 1522 1523 1522 1523 1524
1534 1533 1532 1530 1528 1527 1526 1525 1523 1521 1519 1517 1515 1514 1513 1512 1511 1511 1511 1511 1512 1512 1513 1514 1514 1514 1515 1515 1516 1517 1518 1519 1520 1521 1521 1522 1521 1522 1522 1521 1522 1523